Time,TemperatureF,DewpointF,PressureIn,WindDirection,WindDirectionDegrees,WindSpeedMPH,WindSpeedGustMPH,Humidity,HourlyPrecipIn,Conditions,Clouds,dailyrainin,SoftwareType,DateUTC
2013-09-03 00:01:00,70.0,70.0,29.67,NE,45,1.0,1.0,100,0.00,,,0.00,Rainwise IP-100,2013-09-03 04:01:00,
2013-09-03 00:06:00,70.0,70.0,29.68,NE,45,0.0,2.0,100,0.00,,,0.00,Rainwise IP-100,2013-09-03 04:06:00,
2013-09-03 00:11:00,70.0,70.0,29.68,NE,45,0.0,0.0,100,0.00,,,0.00,Rainwise IP-100,2013-09-03 04:11:00,
2013-09-03 00:16:00,70.0,70.0,29.68,NE,45,0.0,2.0,100,0.00,,,0.00,Rainwise IP-100,2013-09-03 04:16:00,
2013-09-03 00:21:00,70.0,70.0,29.68,NE,45,0.0,1.0,100,0.00,,,0.00,Rainwise IP-100,2013-09-03 04:21:00,
2013-09-03 00:26:00,70.0,70.0,29.68,NE,45,0.0,0.0,100,0.00,,,0.00,Rainwise IP-100,2013-09-03 04:26:00,
2013-09-03 00:31:00,70.0,70.0,29.68,NE,45,0.0,0.0,100,0.00,,,0.00,Rainwise IP-100,2013-09-03 04:31:00,
2013-09-03 00:36:00,70.0,70.0,29.68,NE,45,0.0,0.0,100,0.00,,,0.00,Rainwise IP-100,2013-09-03 04:36:00,
2013-09-03 00:41:00,70.0,70.0,29.68,NE,45,1.0,2.0,100,0.00,,,0.00,Rainwise IP-100,2013-09-03 04:41:00,
2013-09-03 00:46:00,70.0,70.0,29.67,NE,45,0.0,1.0,100,0.00,,,0.00,Rainwise IP-100,2013-09-03 04:46:00,
2013-09-03 00:51:00,71.0,71.0,29.67,SE,135,3.0,4.0,100,0.36,,,0.06,Rainwise IP-100,2013-09-03 04:51:00,
2013-09-03 00:56:00,71.0,71.0,29.66,South,180,0.0,4.0,100,0.42,,,0.07,Rainwise IP-100,2013-09-03 04:56:00,
2013-09-03 01:01:00,71.0,71.0,29.66,South,180,0.0,0.0,100,0.06,,,0.07,Rainwise IP-100,2013-09-03 05:01:00,
2013-09-03 01:06:00,71.0,71.0,29.67,South,180,0.0,2.0,100,0.00,,,0.07,Rainwise IP-100,2013-09-03 05:06:00,
2013-09-03 01:11:00,70.0,70.0,29.67,South,180,0.0,0.0,100,0.00,,,0.07,Rainwise IP-100,2013-09-03 05:11:00,
2013-09-03 01:16:00,70.0,70.0,29.67,South,180,0.0,0.0,100,0.00,,,0.07,Rainwise IP-100,2013-09-03 05:16:00,
2013-09-03 01:21:00,71.0,71.0,29.67,South,180,0.0,0.0,100,0.00,,,0.07,Rainwise IP-100,2013-09-03 05:21:00,
2013-09-03 01:26:00,71.0,71.0,29.67,SW,225,2.0,2.0,100,0.00,,,0.07,Rainwise IP-100,2013-09-03 05:26:00,
2013-09-03 01:31:00,71.0,71.0,29.67,SW,225,0.0,3.0,100,0.00,,,0.07,Rainwise IP-100,2013-09-03 05:31:00,
2013-09-03 01:36:00,71.0,71.0,29.66,SW,225,0.0,0.0,100,0.00,,,0.07,Rainwise IP-100,2013-09-03 05:36:00,
2013-09-03 01:41:00,71.0,71.0,29.66,SW,225,0.0,0.0,100,0.00,,,0.07,Rainwise IP-100,2013-09-03 05:41:00,
2013-09-03 01:46:00,71.0,71.0,29.66,SW,225,0.0,0.0,100,0.00,,,0.07,Rainwise IP-100,2013-09-03 05:46:00,
2013-09-03 01:51:00,71.0,71.0,29.66,SSW,202,0.0,0.0,100,0.00,,,0.07,Rainwise IP-100,2013-09-03 05:51:00,
2013-09-03 01:56:00,71.0,71.0,29.66,SSW,202,2.0,2.0,100,0.00,,,0.07,Rainwise IP-100,2013-09-03 05:56:00,
2013-09-03 02:00:00,71.0,71.0,29.66,SSW,202,0.0,3.0,100,0.00,,,0.07,Rainwise IP-100,2013-09-03 06:00:00,
2013-09-03 02:05:00,71.0,71.0,29.66,SSW,202,0.0,0.0,100,0.00,,,0.07,Rainwise IP-100,2013-09-03 06:05:00,
2013-09-03 02:10:00,71.0,71.0,29.66,ESE,112,0.0,0.0,100,0.00,,,0.07,Rainwise IP-100,2013-09-03 06:10:00,
2013-09-03 02:15:00,71.0,71.0,29.66,ESE,112,0.0,1.0,100,0.00,,,0.07,Rainwise IP-100,2013-09-03 06:15:00,
2013-09-03 02:20:00,71.0,71.0,29.66,ESE,112,0.0,0.0,100,0.00,,,0.07,Rainwise IP-100,2013-09-03 06:20:00,
2013-09-03 02:25:00,71.0,71.0,29.66,ESE,112,0.0,0.0,100,0.00,,,0.07,Rainwise IP-100,2013-09-03 06:25:00,
2013-09-03 02:30:00,71.0,71.0,29.66,ESE,112,0.0,0.0,100,0.00,,,0.07,Rainwise IP-100,2013-09-03 06:30:00,
2013-09-03 02:35:00,71.0,71.0,29.65,ESE,112,0.0,0.0,100,0.00,,,0.07,Rainwise IP-100,2013-09-03 06:35:00,
2013-09-03 02:40:00,71.0,71.0,29.65,ESE,112,0.0,0.0,100,0.00,,,0.07,Rainwise IP-100,2013-09-03 06:40:00,
2013-09-03 02:45:00,71.0,71.0,29.65,ESE,112,0.0,0.0,100,0.00,,,0.07,Rainwise IP-100,2013-09-03 06:45:00,
2013-09-03 02:50:00,71.0,71.0,29.65,ESE,112,0.0,0.0,100,0.00,,,0.07,Rainwise IP-100,2013-09-03 06:50:00,
2013-09-03 02:55:00,71.0,71.0,29.65,ESE,112,0.0,0.0,100,0.00,,,0.07,Rainwise IP-100,2013-09-03 06:55:00,
2013-09-03 03:00:00,71.0,71.0,29.65,SE,135,1.0,1.0,100,0.00,,,0.07,Rainwise IP-100,2013-09-03 07:00:00,
2013-09-03 03:05:00,71.0,71.0,29.64,South,180,3.0,3.0,100,0.00,,,0.07,Rainwise IP-100,2013-09-03 07:05:00,
2013-09-03 03:10:00,71.0,71.0,29.64,South,180,2.0,4.0,100,0.00,,,0.07,Rainwise IP-100,2013-09-03 07:10:00,
2013-09-03 03:15:00,71.0,71.0,29.64,South,180,0.0,6.0,100,0.00,,,0.07,Rainwise IP-100,2013-09-03 07:15:00,
2013-09-03 03:20:00,71.0,71.0,29.64,NNW,337,0.0,3.0,100,0.00,,,0.07,Rainwise IP-100,2013-09-03 07:20:00,
2013-09-03 03:25:00,71.0,71.0,29.64,NNW,337,0.0,3.0,100,0.00,,,0.07,Rainwise IP-100,2013-09-03 07:25:00,
2013-09-03 03:30:00,71.0,71.0,29.64,NNW,337,4.0,4.0,100,0.00,,,0.07,Rainwise IP-100,2013-09-03 07:30:00,
2013-09-03 03:35:00,71.0,71.0,29.65,North,360,0.0,5.0,100,0.00,,,0.07,Rainwise IP-100,2013-09-03 07:35:00,
2013-09-03 03:40:00,71.0,71.0,29.65,North,360,3.0,5.0,100,0.00,,,0.07,Rainwise IP-100,2013-09-03 07:40:00,
2013-09-03 03:45:00,71.0,71.0,29.65,South,180,4.0,4.0,100,0.00,,,0.07,Rainwise IP-100,2013-09-03 07:45:00,
2013-09-03 03:50:00,71.0,71.0,29.65,East,90,0.0,5.0,100,0.00,,,0.07,Rainwise IP-100,2013-09-03 07:50:00,
2013-09-03 03:55:00,71.0,71.0,29.64,East,90,0.0,4.0,100,0.00,,,0.07,Rainwise IP-100,2013-09-03 07:55:00,
2013-09-03 04:00:00,71.0,71.0,29.64,East,90,0.0,0.0,100,0.00,,,0.07,Rainwise IP-100,2013-09-03 08:00:00,
2013-09-03 04:05:00,71.0,71.0,29.65,East,90,0.0,0.0,100,0.00,,,0.07,Rainwise IP-100,2013-09-03 08:05:00,
2013-09-03 04:10:00,71.0,71.0,29.65,North,360,3.0,5.0,100,0.00,,,0.07,Rainwise IP-100,2013-09-03 08:10:00,
2013-09-03 04:15:00,71.0,71.0,29.64,NW,315,2.0,6.0,100,0.00,,,0.07,Rainwise IP-100,2013-09-03 08:15:00,
2013-09-03 04:20:00,71.0,71.0,29.64,NW,315,0.0,6.0,100,0.00,,,0.07,Rainwise IP-100,2013-09-03 08:20:00,
2013-09-03 04:25:00,71.0,71.0,29.65,NW,315,0.0,0.0,100,0.00,,,0.07,Rainwise IP-100,2013-09-03 08:25:00,
2013-09-03 04:30:00,71.0,71.0,29.65,NW,315,0.0,0.0,100,0.00,,,0.07,Rainwise IP-100,2013-09-03 08:30:00,
2013-09-03 04:35:00,71.0,71.0,29.64,NW,315,0.0,0.0,100,0.00,,,0.07,Rainwise IP-100,2013-09-03 08:35:00,
2013-09-03 04:40:00,70.0,70.0,29.64,NE,45,0.0,3.0,100,0.00,,,0.07,Rainwise IP-100,2013-09-03 08:40:00,
2013-09-03 04:45:00,70.0,70.0,29.64,NE,45,0.0,0.0,100,0.00,,,0.07,Rainwise IP-100,2013-09-03 08:45:00,
2013-09-03 04:50:00,70.0,70.0,29.64,NE,45,0.0,0.0,100,0.00,,,0.07,Rainwise IP-100,2013-09-03 08:50:00,
2013-09-03 04:55:00,71.0,71.0,29.65,NE,45,0.0,0.0,100,0.00,,,0.07,Rainwise IP-100,2013-09-03 08:55:00,
2013-09-03 05:00:00,71.0,71.0,29.65,ESE,112,0.0,4.0,100,0.00,,,0.07,Rainwise IP-100,2013-09-03 09:00:00,
2013-09-03 05:05:00,71.0,71.0,29.65,ESE,112,0.0,0.0,100,0.00,,,0.07,Rainwise IP-100,2013-09-03 09:05:00,
2013-09-03 05:10:00,71.0,71.0,29.65,NNE,22,1.0,2.0,100,0.00,,,0.07,Rainwise IP-100,2013-09-03 09:10:00,
2013-09-03 05:15:00,71.0,71.0,29.65,NNE,22,1.0,2.0,100,0.00,,,0.07,Rainwise IP-100,2013-09-03 09:15:00,
2013-09-03 05:20:00,71.0,71.0,29.65,NNE,22,0.0,2.0,100,0.00,,,0.07,Rainwise IP-100,2013-09-03 09:20:00,
2013-09-03 05:25:00,71.0,71.0,29.65,NNE,22,0.0,0.0,100,0.00,,,0.07,Rainwise IP-100,2013-09-03 09:25:00,
2013-09-03 05:30:00,71.0,71.0,29.65,NNE,22,0.0,0.0,100,0.00,,,0.07,Rainwise IP-100,2013-09-03 09:30:00,
2013-09-03 05:35:00,71.0,71.0,29.65,NNE,22,0.0,0.0,100,0.00,,,0.07,Rainwise IP-100,2013-09-03 09:35:00,
2013-09-03 05:40:00,70.0,70.0,29.65,NNE,22,0.0,0.0,100,0.00,,,0.07,Rainwise IP-100,2013-09-03 09:40:00,
2013-09-03 05:45:00,70.0,70.0,29.66,NNE,22,0.0,2.0,100,0.00,,,0.07,Rainwise IP-100,2013-09-03 09:45:00,
2013-09-03 05:50:00,70.0,70.0,29.66,NNE,22,2.0,2.0,100,0.00,,,0.07,Rainwise IP-100,2013-09-03 09:50:00,
2013-09-03 05:51:00,70.0,70.0,29.66,NNE,22,1.0,2.0,100,0.00,,,0.07,Rainwise IP-100,2013-09-03 09:51:00,
2013-09-03 05:56:00,70.0,70.0,29.66,NNE,22,0.0,3.0,100,0.00,,,0.07,Rainwise IP-100,2013-09-03 09:56:00,
2013-09-03 06:01:00,70.0,70.0,29.66,NNE,22,0.0,2.0,100,0.00,,,0.07,Rainwise IP-100,2013-09-03 10:01:00,
2013-09-03 06:06:00,70.0,70.0,29.66,NNE,22,0.0,0.0,100,0.00,,,0.07,Rainwise IP-100,2013-09-03 10:06:00,
2013-09-03 06:11:00,70.0,70.0,29.66,NNE,22,1.0,2.0,100,0.00,,,0.07,Rainwise IP-100,2013-09-03 10:11:00,
2013-09-03 06:16:00,70.0,70.0,29.67,NNE,22,0.0,1.0,100,0.00,,,0.07,Rainwise IP-100,2013-09-03 10:16:00,
2013-09-03 06:21:00,70.0,70.0,29.67,NNE,22,0.0,0.0,100,0.00,,,0.07,Rainwise IP-100,2013-09-03 10:21:00,
2013-09-03 06:26:00,70.0,70.0,29.67,NNE,22,0.0,0.0,100,0.00,,,0.07,Rainwise IP-100,2013-09-03 10:26:00,
2013-09-03 06:31:00,70.0,70.0,29.67,NNE,22,0.0,0.0,100,0.00,,,0.07,Rainwise IP-100,2013-09-03 10:31:00,
2013-09-03 06:36:00,70.0,70.0,29.68,NNE,22,0.0,0.0,100,0.00,,,0.07,Rainwise IP-100,2013-09-03 10:36:00,
2013-09-03 06:41:00,70.0,70.0,29.68,NNE,22,0.0,0.0,100,0.00,,,0.07,Rainwise IP-100,2013-09-03 10:41:00,
2013-09-03 06:46:00,70.0,70.0,29.68,NNE,22,0.0,0.0,100,0.00,,,0.07,Rainwise IP-100,2013-09-03 10:46:00,
2013-09-03 06:51:00,70.0,70.0,29.68,NNE,22,0.0,0.0,100,0.00,,,0.07,Rainwise IP-100,2013-09-03 10:51:00,
2013-09-03 06:56:00,70.0,70.0,29.68,NNE,22,0.0,0.0,100,0.00,,,0.07,Rainwise IP-100,2013-09-03 10:56:00,
2013-09-03 07:01:00,70.0,70.0,29.68,NNE,22,0.0,0.0,100,0.00,,,0.07,Rainwise IP-100,2013-09-03 11:01:00,
2013-09-03 07:06:00,70.0,70.0,29.68,NNE,22,0.0,0.0,100,0.00,,,0.07,Rainwise IP-100,2013-09-03 11:06:00,
2013-09-03 07:11:00,70.0,70.0,29.68,NNE,22,0.0,0.0,100,0.00,,,0.07,Rainwise IP-100,2013-09-03 11:11:00,
2013-09-03 07:16:00,70.0,70.0,29.69,NNE,22,0.0,0.0,100,0.00,,,0.07,Rainwise IP-100,2013-09-03 11:16:00,
2013-09-03 07:21:00,70.0,70.0,29.69,NNE,22,0.0,0.0,100,0.00,,,0.07,Rainwise IP-100,2013-09-03 11:21:00,
2013-09-03 07:26:00,70.0,70.0,29.69,NNE,22,0.0,0.0,100,0.00,,,0.07,Rainwise IP-100,2013-09-03 11:26:00,
2013-09-03 07:31:00,70.0,70.0,29.69,NNE,22,0.0,0.0,100,0.00,,,0.07,Rainwise IP-100,2013-09-03 11:31:00,
2013-09-03 07:36:00,71.0,71.0,29.69,NNE,22,0.0,0.0,100,0.00,,,0.07,Rainwise IP-100,2013-09-03 11:36:00,
2013-09-03 07:41:00,71.0,71.0,29.69,SSE,157,0.0,3.0,100,0.00,,,0.07,Rainwise IP-100,2013-09-03 11:41:00,
2013-09-03 07:46:00,71.0,71.0,29.69,SSE,157,0.0,3.0,100,0.00,,,0.07,Rainwise IP-100,2013-09-03 11:46:00,
2013-09-03 07:51:00,71.0,71.0,29.69,SE,135,0.0,4.0,100,0.00,,,0.07,Rainwise IP-100,2013-09-03 11:51:00,
2013-09-03 07:56:00,71.0,71.0,29.70,WNW,292,0.0,4.0,100,0.00,,,0.07,Rainwise IP-100,2013-09-03 11:56:00,
2013-09-03 08:01:00,71.0,71.0,29.70,WNW,292,3.0,8.0,100,0.00,,,0.07,Rainwise IP-100,2013-09-03 12:01:00,
2013-09-03 08:06:00,71.0,71.0,29.70,North,360,1.0,8.0,100,0.00,,,0.07,Rainwise IP-100,2013-09-03 12:06:00,
2013-09-03 08:11:00,71.0,71.0,29.70,ENE,67,0.0,4.0,100,0.00,,,0.07,Rainwise IP-100,2013-09-03 12:11:00,
2013-09-03 08:16:00,71.0,71.0,29.70,ENE,67,0.0,0.0,100,0.00,,,0.07,Rainwise IP-100,2013-09-03 12:16:00,
2013-09-03 08:21:00,71.0,71.0,29.70,NE,45,1.0,2.0,100,0.00,,,0.07,Rainwise IP-100,2013-09-03 12:21:00,
2013-09-03 08:26:00,71.0,71.0,29.70,North,360,1.0,1.0,100,0.00,,,0.07,Rainwise IP-100,2013-09-03 12:26:00,
2013-09-03 08:31:00,72.0,72.0,29.70,North,360,0.0,2.0,100,0.00,,,0.07,Rainwise IP-100,2013-09-03 12:31:00,
2013-09-03 08:36:00,72.0,72.0,29.69,SW,225,0.0,2.0,100,0.00,,,0.07,Rainwise IP-100,2013-09-03 12:36:00,
2013-09-03 08:41:00,72.0,72.0,29.69,North,360,0.0,4.0,100,0.00,,,0.07,Rainwise IP-100,2013-09-03 12:41:00,
2013-09-03 08:46:00,72.0,72.0,29.69,East,90,0.0,3.0,100,0.00,,,0.07,Rainwise IP-100,2013-09-03 12:46:00,
2013-09-03 08:51:00,72.0,72.0,29.69,North,360,2.0,5.0,100,0.00,,,0.07,Rainwise IP-100,2013-09-03 12:51:00,
2013-09-03 08:56:00,72.0,72.0,29.70,NW,315,2.0,6.0,100,0.00,,,0.07,Rainwise IP-100,2013-09-03 12:56:00,
2013-09-03 09:01:00,72.0,72.0,29.70,North,360,6.0,6.0,100,0.00,,,0.07,Rainwise IP-100,2013-09-03 13:01:00,
2013-09-03 09:06:00,71.0,71.0,29.70,SW,225,2.0,7.0,100,0.06,,,0.08,Rainwise IP-100,2013-09-03 13:06:00,
2013-09-03 09:11:00,72.0,72.0,29.70,North,360,0.0,7.0,100,0.06,,,0.08,Rainwise IP-100,2013-09-03 13:11:00,
2013-09-03 09:16:00,72.0,72.0,29.70,NW,315,1.0,6.0,100,0.00,,,0.08,Rainwise IP-100,2013-09-03 13:16:00,
2013-09-03 09:21:00,73.0,73.0,29.70,North,360,0.0,7.0,100,0.00,,,0.08,Rainwise IP-100,2013-09-03 13:21:00,
2013-09-03 09:26:00,73.0,73.0,29.70,North,360,2.0,6.0,100,0.00,,,0.08,Rainwise IP-100,2013-09-03 13:26:00,
2013-09-03 09:31:00,73.0,73.0,29.70,North,360,6.0,12.0,100,0.00,,,0.08,Rainwise IP-100,2013-09-03 13:31:00,
2013-09-03 09:36:00,74.0,74.0,29.69,North,360,6.0,7.0,100,0.00,,,0.08,Rainwise IP-100,2013-09-03 13:36:00,
2013-09-03 09:41:00,74.0,74.0,29.69,NE,45,1.0,7.0,100,0.00,,,0.08,Rainwise IP-100,2013-09-03 13:41:00,
2013-09-03 09:46:00,74.0,72.0,29.70,North,360,6.0,12.0,95,0.00,,,0.08,Rainwise IP-100,2013-09-03 13:46:00,
2013-09-03 09:51:00,74.0,73.0,29.70,SE,135,0.0,9.0,96,0.00,,,0.08,Rainwise IP-100,2013-09-03 13:51:00,
2013-09-03 09:56:00,74.0,71.0,29.70,North,360,3.0,10.0,91,0.00,,,0.08,Rainwise IP-100,2013-09-03 13:56:00,
2013-09-03 10:01:00,75.0,72.0,29.70,NNE,22,2.0,9.0,92,0.00,,,0.08,Rainwise IP-100,2013-09-03 14:01:00,
2013-09-03 10:06:00,75.0,72.0,29.70,NNW,337,8.0,8.0,90,0.00,,,0.08,Rainwise IP-100,2013-09-03 14:06:00,
2013-09-03 10:11:00,74.0,71.0,29.70,North,360,10.0,10.0,91,0.00,,,0.08,Rainwise IP-100,2013-09-03 14:11:00,
2013-09-03 10:16:00,74.0,71.0,29.71,West,270,0.0,11.0,91,0.00,,,0.08,Rainwise IP-100,2013-09-03 14:16:00,
2013-09-03 10:21:00,74.0,71.0,29.71,North,360,2.0,9.0,89,0.00,,,0.08,Rainwise IP-100,2013-09-03 14:21:00,
2013-09-03 10:26:00,74.0,70.0,29.71,North,360,6.0,10.0,87,0.00,,,0.08,Rainwise IP-100,2013-09-03 14:26:00,
2013-09-03 10:31:00,74.0,71.0,29.71,NNE,22,2.0,11.0,89,0.00,,,0.08,Rainwise IP-100,2013-09-03 14:31:00,
2013-09-03 10:36:00,74.0,71.0,29.71,West,270,3.0,9.0,91,0.00,,,0.08,Rainwise IP-100,2013-09-03 14:36:00,
2013-09-03 10:41:00,74.0,71.0,29.71,North,360,6.0,10.0,89,0.00,,,0.08,Rainwise IP-100,2013-09-03 14:41:00,
2013-09-03 10:46:00,73.0,69.0,29.72,NNE,22,7.0,10.0,87,0.00,,,0.08,Rainwise IP-100,2013-09-03 14:46:00,
2013-09-03 10:51:00,73.0,69.0,29.72,North,360,3.0,11.0,86,0.00,,,0.08,Rainwise IP-100,2013-09-03 14:51:00,
2013-09-03 10:56:00,73.0,69.0,29.72,North,360,1.0,11.0,86,0.00,,,0.08,Rainwise IP-100,2013-09-03 14:56:00,
2013-09-03 11:01:00,73.0,69.0,29.72,NE,45,4.0,10.0,87,0.00,,,0.08,Rainwise IP-100,2013-09-03 15:01:00,
2013-09-03 11:06:00,73.0,69.0,29.73,North,360,6.0,9.0,87,0.00,,,0.08,Rainwise IP-100,2013-09-03 15:06:00,
2013-09-03 11:11:00,72.0,67.0,29.73,NNW,337,4.0,12.0,86,0.00,,,0.08,Rainwise IP-100,2013-09-03 15:11:00,
2013-09-03 11:16:00,73.0,68.0,29.73,North,360,6.0,11.0,84,0.00,,,0.08,Rainwise IP-100,2013-09-03 15:16:00,
2013-09-03 11:21:00,73.0,69.0,29.73,NE,45,1.0,10.0,86,0.00,,,0.08,Rainwise IP-100,2013-09-03 15:21:00,
2013-09-03 11:26:00,73.0,68.0,29.73,North,360,1.0,9.0,84,0.00,,,0.08,Rainwise IP-100,2013-09-03 15:26:00,
2013-09-03 11:31:00,74.0,68.0,29.73,NW,315,5.0,7.0,81,0.00,,,0.08,Rainwise IP-100,2013-09-03 15:31:00,
2013-09-03 11:36:00,74.0,68.0,29.72,North,360,1.0,10.0,81,0.00,,,0.08,Rainwise IP-100,2013-09-03 15:36:00,
2013-09-03 11:41:00,75.0,69.0,29.72,North,360,0.0,6.0,82,0.00,,,0.08,Rainwise IP-100,2013-09-03 15:41:00,
2013-09-03 11:46:00,75.0,66.0,29.72,NE,45,3.0,6.0,75,0.00,,,0.08,Rainwise IP-100,2013-09-03 15:46:00,
2013-09-03 11:51:00,75.0,65.0,29.72,North,360,1.0,7.0,72,0.00,,,0.08,Rainwise IP-100,2013-09-03 15:51:00,
2013-09-03 11:56:00,75.0,66.0,29.72,North,360,8.0,9.0,73,0.00,,,0.08,Rainwise IP-100,2013-09-03 15:56:00,
2013-09-03 12:01:00,76.0,66.0,29.72,NW,315,1.0,9.0,71,0.00,,,0.08,Rainwise IP-100,2013-09-03 16:01:00,
2013-09-03 12:06:00,76.0,63.0,29.71,NW,315,7.0,10.0,65,0.00,,,0.08,Rainwise IP-100,2013-09-03 16:06:00,
2013-09-03 12:11:00,76.0,64.0,29.71,North,360,5.0,15.0,67,0.00,,,0.08,Rainwise IP-100,2013-09-03 16:11:00,
2013-09-03 12:16:00,77.0,65.0,29.70,NW,315,1.0,7.0,66,0.00,,,0.08,Rainwise IP-100,2013-09-03 16:16:00,
2013-09-03 12:21:00,77.0,65.0,29.70,NW,315,1.0,10.0,66,0.00,,,0.08,Rainwise IP-100,2013-09-03 16:21:00,
2013-09-03 12:26:00,78.0,64.0,29.70,NNW,337,7.0,8.0,63,0.00,,,0.08,Rainwise IP-100,2013-09-03 16:26:00,
2013-09-03 12:31:00,78.0,64.0,29.70,North,360,3.0,11.0,62,0.00,,,0.08,Rainwise IP-100,2013-09-03 16:31:00,
2013-09-03 12:36:00,79.0,66.0,29.70,NW,315,0.0,7.0,66,0.00,,,0.08,Rainwise IP-100,2013-09-03 16:36:00,
2013-09-03 12:41:00,78.0,62.0,29.70,WSW,247,2.0,9.0,59,0.00,,,0.08,Rainwise IP-100,2013-09-03 16:41:00,
2013-09-03 12:46:00,77.0,62.0,29.71,North,360,2.0,7.0,60,0.00,,,0.08,Rainwise IP-100,2013-09-03 16:46:00,
2013-09-03 12:51:00,78.0,63.0,29.71,NW,315,2.0,9.0,60,0.00,,,0.08,Rainwise IP-100,2013-09-03 16:51:00,
2013-09-03 12:56:00,76.0,62.0,29.71,North,360,3.0,9.0,62,0.00,,,0.08,Rainwise IP-100,2013-09-03 16:56:00,
2013-09-03 13:01:00,77.0,65.0,29.71,North,360,1.0,8.0,66,0.00,,,0.08,Rainwise IP-100,2013-09-03 17:01:00,
2013-09-03 13:06:00,77.0,63.0,29.71,NW,315,4.0,7.0,62,0.00,,,0.08,Rainwise IP-100,2013-09-03 17:06:00,
2013-09-03 13:11:00,78.0,65.0,29.71,SSW,202,2.0,8.0,64,0.00,,,0.08,Rainwise IP-100,2013-09-03 17:11:00,
2013-09-03 13:16:00,79.0,65.0,29.70,North,360,3.0,9.0,62,0.00,,,0.08,Rainwise IP-100,2013-09-03 17:16:00,
2013-09-03 13:21:00,79.0,64.0,29.70,SSW,202,0.0,11.0,60,0.00,,,0.08,Rainwise IP-100,2013-09-03 17:21:00,
2013-09-03 13:26:00,80.0,64.0,29.70,NNE,22,0.0,6.0,59,0.00,,,0.08,Rainwise IP-100,2013-09-03 17:26:00,
2013-09-03 13:31:00,80.0,65.0,29.70,WNW,292,5.0,7.0,60,0.00,,,0.08,Rainwise IP-100,2013-09-03 17:31:00,
2013-09-03 13:36:00,79.0,61.0,29.70,NW,315,2.0,10.0,55,0.00,,,0.08,Rainwise IP-100,2013-09-03 17:36:00,
2013-09-03 13:41:00,79.0,63.0,29.70,North,360,3.0,7.0,59,0.00,,,0.08,Rainwise IP-100,2013-09-03 17:41:00,
2013-09-03 13:46:00,79.0,62.0,29.70,North,360,1.0,7.0,57,0.00,,,0.08,Rainwise IP-100,2013-09-03 17:46:00,
2013-09-03 13:51:00,79.0,61.0,29.70,NNW,337,7.0,7.0,54,0.00,,,0.08,Rainwise IP-100,2013-09-03 17:51:00,
2013-09-03 13:56:00,79.0,63.0,29.70,North,360,2.0,10.0,59,0.00,,,0.08,Rainwise IP-100,2013-09-03 17:56:00,
2013-09-03 14:01:00,79.0,63.0,29.70,North,360,1.0,10.0,58,0.00,,,0.08,Rainwise IP-100,2013-09-03 18:01:00,
2013-09-03 14:06:00,80.0,64.0,29.69,NE,45,2.0,10.0,59,0.00,,,0.08,Rainwise IP-100,2013-09-03 18:06:00,
2013-09-03 14:11:00,80.0,62.0,29.69,NW,315,13.0,13.0,55,0.00,,,0.08,Rainwise IP-100,2013-09-03 18:11:00,
2013-09-03 14:16:00,80.0,64.0,29.70,North,360,0.0,13.0,59,0.00,,,0.08,Rainwise IP-100,2013-09-03 18:16:00,
2013-09-03 14:21:00,81.0,65.0,29.70,SW,225,2.0,4.0,59,0.00,,,0.08,Rainwise IP-100,2013-09-03 18:21:00,
2013-09-03 14:26:00,81.0,61.0,29.68,North,360,5.0,9.0,51,0.00,,,0.08,Rainwise IP-100,2013-09-03 18:26:00,
2013-09-03 14:31:00,82.0,63.0,29.68,NW,315,1.0,9.0,54,0.00,,,0.08,Rainwise IP-100,2013-09-03 18:31:00,
2013-09-03 14:36:00,82.0,61.0,29.68,West,270,4.0,6.0,50,0.00,,,0.08,Rainwise IP-100,2013-09-03 18:36:00,
2013-09-03 14:41:00,82.0,62.0,29.68,North,360,1.0,10.0,52,0.00,,,0.08,Rainwise IP-100,2013-09-03 18:41:00,
2013-09-03 14:46:00,82.0,61.0,29.68,NW,315,0.0,8.0,49,0.00,,,0.08,Rainwise IP-100,2013-09-03 18:46:00,
2013-09-03 14:51:00,83.0,62.0,29.68,NNW,337,6.0,6.0,49,0.00,,,0.08,Rainwise IP-100,2013-09-03 18:51:00,
2013-09-03 14:56:00,83.0,63.0,29.67,WNW,292,1.0,9.0,52,0.00,,,0.08,Rainwise IP-100,2013-09-03 18:56:00,
2013-09-03 15:01:00,83.0,63.0,29.67,North,360,0.0,7.0,51,0.00,,,0.08,Rainwise IP-100,2013-09-03 19:01:00,
2013-09-03 15:06:00,83.0,63.0,29.67,West,270,1.0,9.0,52,0.00,,,0.08,Rainwise IP-100,2013-09-03 19:06:00,
2013-09-03 15:11:00,83.0,61.0,29.67,NW,315,3.0,7.0,47,0.00,,,0.08,Rainwise IP-100,2013-09-03 19:11:00,
2013-09-03 15:16:00,82.0,63.0,29.68,South,180,0.0,8.0,53,0.00,,,0.08,Rainwise IP-100,2013-09-03 19:16:00,
2013-09-03 15:21:00,83.0,61.0,29.68,North,360,5.0,8.0,48,0.00,,,0.08,Rainwise IP-100,2013-09-03 19:21:00,
2013-09-03 15:26:00,83.0,62.0,29.68,West,270,5.0,7.0,49,0.00,,,0.08,Rainwise IP-100,2013-09-03 19:26:00,
2013-09-03 15:31:00,82.0,62.0,29.68,NNW,337,2.0,8.0,51,0.00,,,0.08,Rainwise IP-100,2013-09-03 19:31:00,
2013-09-03 15:36:00,83.0,63.0,29.67,West,270,0.0,5.0,51,0.00,,,0.08,Rainwise IP-100,2013-09-03 19:36:00,
2013-09-03 15:41:00,82.0,61.0,29.67,West,270,6.0,8.0,50,0.00,,,0.08,Rainwise IP-100,2013-09-03 19:41:00,
2013-09-03 15:46:00,82.0,60.0,29.67,NE,45,1.0,11.0,47,0.00,,,0.08,Rainwise IP-100,2013-09-03 19:46:00,
2013-09-03 15:51:00,83.0,59.0,29.67,West,270,4.0,13.0,45,0.00,,,0.08,Rainwise IP-100,2013-09-03 19:51:00,
2013-09-03 15:56:00,82.0,60.0,29.67,NW,315,0.0,7.0,47,0.00,,,0.08,Rainwise IP-100,2013-09-03 19:56:00,
2013-09-03 16:01:00,82.0,61.0,29.67,West,270,0.0,8.0,49,0.00,,,0.08,Rainwise IP-100,2013-09-03 20:01:00,
2013-09-03 16:06:00,83.0,61.0,29.67,West,270,1.0,7.0,47,0.00,,,0.08,Rainwise IP-100,2013-09-03 20:06:00,
2013-09-03 16:11:00,83.0,59.0,29.67,West,270,2.0,6.0,45,0.00,,,0.08,Rainwise IP-100,2013-09-03 20:11:00,
2013-09-03 16:16:00,83.0,61.0,29.67,NW,315,2.0,8.0,48,0.00,,,0.08,Rainwise IP-100,2013-09-03 20:16:00,
2013-09-03 16:21:00,83.0,60.0,29.67,NW,315,1.0,8.0,46,0.00,,,0.08,Rainwise IP-100,2013-09-03 20:21:00,
2013-09-03 16:26:00,82.0,60.0,29.67,NNW,337,3.0,7.0,47,0.00,,,0.08,Rainwise IP-100,2013-09-03 20:26:00,
2013-09-03 16:31:00,82.0,57.0,29.67,West,270,3.0,10.0,44,0.00,,,0.08,Rainwise IP-100,2013-09-03 20:31:00,
2013-09-03 16:36:00,82.0,59.0,29.68,NW,315,1.0,5.0,46,0.00,,,0.08,Rainwise IP-100,2013-09-03 20:36:00,
2013-09-03 16:41:00,82.0,59.0,29.68,NW,315,3.0,8.0,45,0.00,,,0.08,Rainwise IP-100,2013-09-03 20:41:00,
2013-09-03 16:46:00,83.0,61.0,29.68,South,180,1.0,9.0,47,0.00,,,0.08,Rainwise IP-100,2013-09-03 20:46:00,
2013-09-03 16:51:00,82.0,61.0,29.68,NNW,337,0.0,6.0,49,0.00,,,0.08,Rainwise IP-100,2013-09-03 20:51:00,
2013-09-03 16:56:00,82.0,59.0,29.68,NW,315,5.0,9.0,45,0.00,,,0.08,Rainwise IP-100,2013-09-03 20:56:00,
2013-09-03 17:01:00,82.0,59.0,29.68,NNE,22,2.0,6.0,46,0.00,,,0.08,Rainwise IP-100,2013-09-03 21:01:00,
2013-09-03 17:06:00,82.0,60.0,29.68,NNW,337,5.0,6.0,47,0.00,,,0.08,Rainwise IP-100,2013-09-03 21:06:00,
2013-09-03 17:11:00,82.0,60.0,29.68,NW,315,1.0,7.0,47,0.00,,,0.08,Rainwise IP-100,2013-09-03 21:11:00,
2013-09-03 17:16:00,82.0,59.0,29.68,SE,135,1.0,7.0,46,0.00,,,0.08,Rainwise IP-100,2013-09-03 21:16:00,
2013-09-03 17:21:00,81.0,59.0,29.68,West,270,2.0,7.0,47,0.00,,,0.08,Rainwise IP-100,2013-09-03 21:21:00,
2013-09-03 17:26:00,81.0,58.0,29.69,NW,315,1.0,6.0,46,0.00,,,0.08,Rainwise IP-100,2013-09-03 21:26:00,
2013-09-03 17:31:00,81.0,59.0,29.69,West,270,2.0,7.0,47,0.00,,,0.08,Rainwise IP-100,2013-09-03 21:31:00,
2013-09-03 17:36:00,80.0,60.0,29.70,WNW,292,2.0,4.0,50,0.00,,,0.08,Rainwise IP-100,2013-09-03 21:36:00,
2013-09-03 17:41:00,80.0,59.0,29.70,WNW,292,3.0,5.0,49,0.00,,,0.08,Rainwise IP-100,2013-09-03 21:41:00,
2013-09-03 17:46:00,79.0,59.0,29.70,WNW,292,1.0,6.0,50,0.00,,,0.08,Rainwise IP-100,2013-09-03 21:46:00,
2013-09-03 17:51:00,79.0,60.0,29.70,West,270,0.0,3.0,52,0.00,,,0.08,Rainwise IP-100,2013-09-03 21:51:00,
2013-09-03 17:56:00,80.0,61.0,29.71,NW,315,0.0,2.0,53,0.00,,,0.08,Rainwise IP-100,2013-09-03 21:56:00,
2013-09-03 18:01:00,80.0,61.0,29.71,North,360,1.0,3.0,53,0.00,,,0.08,Rainwise IP-100,2013-09-03 22:01:00,
2013-09-03 18:06:00,79.0,60.0,29.71,NW,315,1.0,2.0,52,0.00,,,0.08,Rainwise IP-100,2013-09-03 22:06:00,
2013-09-03 18:11:00,78.0,60.0,29.71,WNW,292,1.0,3.0,54,0.00,,,0.08,Rainwise IP-100,2013-09-03 22:11:00,
2013-09-03 18:16:00,77.0,62.0,29.72,West,270,0.0,7.0,60,0.00,,,0.08,Rainwise IP-100,2013-09-03 22:16:00,
2013-09-03 18:21:00,77.0,61.0,29.72,West,270,0.0,2.0,59,0.00,,,0.08,Rainwise IP-100,2013-09-03 22:21:00,
2013-09-03 18:26:00,76.0,60.0,29.72,West,270,0.0,2.0,58,0.00,,,0.08,Rainwise IP-100,2013-09-03 22:26:00,
2013-09-03 18:31:00,75.0,60.0,29.72,North,360,1.0,3.0,59,0.00,,,0.08,Rainwise IP-100,2013-09-03 22:31:00,
2013-09-03 18:36:00,75.0,61.0,29.73,West,270,1.0,3.0,61,0.00,,,0.08,Rainwise IP-100,2013-09-03 22:36:00,
2013-09-03 18:41:00,74.0,60.0,29.73,WNW,292,0.0,4.0,61,0.00,,,0.08,Rainwise IP-100,2013-09-03 22:41:00,
2013-09-03 18:46:00,74.0,61.0,29.74,WNW,292,0.0,0.0,63,0.00,,,0.08,Rainwise IP-100,2013-09-03 22:46:00,
2013-09-03 18:51:00,73.0,61.0,29.74,WNW,292,0.0,0.0,67,0.00,,,0.08,Rainwise IP-100,2013-09-03 22:51:00,
2013-09-03 18:56:00,73.0,64.0,29.74,WNW,292,0.0,0.0,73,0.00,,,0.08,Rainwise IP-100,2013-09-03 22:56:00,
2013-09-03 19:01:00,72.0,62.0,29.74,WNW,292,0.0,0.0,72,0.00,,,0.08,Rainwise IP-100,2013-09-03 23:01:00,
2013-09-03 19:06:00,71.0,61.0,29.74,WNW,292,0.0,0.0,71,0.00,,,0.08,Rainwise IP-100,2013-09-03 23:06:00,
2013-09-03 19:11:00,71.0,61.0,29.74,WNW,292,0.0,0.0,71,0.00,,,0.08,Rainwise IP-100,2013-09-03 23:11:00,
2013-09-03 19:16:00,70.0,61.0,29.75,WNW,292,0.0,0.0,73,0.00,,,0.08,Rainwise IP-100,2013-09-03 23:16:00,
2013-09-03 19:21:00,69.0,60.0,29.75,WNW,292,0.0,0.0,75,0.00,,,0.08,Rainwise IP-100,2013-09-03 23:21:00,
2013-09-03 19:26:00,69.0,61.0,29.76,WNW,292,0.0,0.0,76,0.00,,,0.08,Rainwise IP-100,2013-09-03 23:26:00,
2013-09-03 19:31:00,68.0,61.0,29.76,WNW,292,0.0,0.0,78,0.00,,,0.08,Rainwise IP-100,2013-09-03 23:31:00,
2013-09-03 19:36:00,68.0,61.0,29.77,WNW,292,0.0,1.0,78,0.00,,,0.08,Rainwise IP-100,2013-09-03 23:36:00,
2013-09-03 19:41:00,67.0,60.0,29.77,WNW,292,0.0,1.0,79,0.00,,,0.08,Rainwise IP-100,2013-09-03 23:41:00,
2013-09-03 19:46:00,67.0,60.0,29.78,WNW,292,0.0,1.0,79,0.00,,,0.08,Rainwise IP-100,2013-09-03 23:46:00,
2013-09-03 19:51:00,67.0,60.0,29.78,WNW,292,0.0,1.0,79,0.00,,,0.08,Rainwise IP-100,2013-09-03 23:51:00,
2013-09-03 19:56:00,66.0,59.0,29.78,WNW,292,0.0,1.0,79,0.00,,,0.08,Rainwise IP-100,2013-09-03 23:56:00,
2013-09-03 20:01:00,66.0,58.0,29.78,WNW,292,1.0,1.0,77,0.00,,,0.08,Rainwise IP-100,2013-09-04 00:01:00,
2013-09-03 20:06:00,67.0,60.0,29.78,West,270,0.0,4.0,77,0.00,,,0.08,Rainwise IP-100,2013-09-04 00:06:00,
2013-09-03 20:11:00,67.0,60.0,29.78,North,360,1.0,3.0,77,0.00,,,0.08,Rainwise IP-100,2013-09-04 00:11:00,
2013-09-03 20:16:00,67.0,60.0,29.78,North,360,1.0,6.0,77,0.00,,,0.08,Rainwise IP-100,2013-09-04 00:16:00,
2013-09-03 20:21:00,67.0,60.0,29.78,NW,315,0.0,3.0,77,0.00,,,0.08,Rainwise IP-100,2013-09-04 00:21:00,
2013-09-03 20:26:00,67.0,60.0,29.79,NW,315,0.0,2.0,78,0.00,,,0.08,Rainwise IP-100,2013-09-04 00:26:00,
2013-09-03 20:31:00,66.0,59.0,29.79,NW,315,0.0,2.0,79,0.00,,,0.08,Rainwise IP-100,2013-09-04 00:31:00,
2013-09-03 20:36:00,66.0,60.0,29.79,NW,315,0.0,2.0,83,0.00,,,0.08,Rainwise IP-100,2013-09-04 00:36:00,
2013-09-03 20:41:00,66.0,60.0,29.79,NW,315,0.0,0.0,83,0.00,,,0.08,Rainwise IP-100,2013-09-04 00:41:00,
2013-09-03 20:46:00,66.0,60.0,29.80,NW,315,0.0,0.0,83,0.00,,,0.08,Rainwise IP-100,2013-09-04 00:46:00,
2013-09-03 20:51:00,65.0,60.0,29.80,NW,315,0.0,1.0,85,0.00,,,0.08,Rainwise IP-100,2013-09-04 00:51:00,
2013-09-03 20:56:00,65.0,60.0,29.81,NW,315,0.0,0.0,86,0.00,,,0.08,Rainwise IP-100,2013-09-04 00:56:00,
2013-09-03 21:01:00,65.0,62.0,29.81,NW,315,0.0,0.0,90,0.00,,,0.08,Rainwise IP-100,2013-09-04 01:01:00,
2013-09-03 21:06:00,65.0,61.0,29.82,NW,315,0.0,0.0,88,0.00,,,0.08,Rainwise IP-100,2013-09-04 01:06:00,
2013-09-03 21:11:00,64.0,61.0,29.82,NW,315,0.0,0.0,90,0.00,,,0.08,Rainwise IP-100,2013-09-04 01:11:00,
2013-09-03 21:16:00,64.0,61.0,29.82,NW,315,0.0,0.0,90,0.00,,,0.08,Rainwise IP-100,2013-09-04 01:16:00,
2013-09-03 21:21:00,64.0,61.0,29.82,NW,315,0.0,0.0,90,0.00,,,0.08,Rainwise IP-100,2013-09-04 01:21:00,
2013-09-03 21:26:00,64.0,61.0,29.82,NW,315,0.0,0.0,91,0.00,,,0.08,Rainwise IP-100,2013-09-04 01:26:00,
2013-09-03 21:31:00,64.0,61.0,29.82,NW,315,0.0,0.0,92,0.00,,,0.08,Rainwise IP-100,2013-09-04 01:31:00,
2013-09-03 21:36:00,64.0,62.0,29.82,NW,315,0.0,0.0,93,0.00,,,0.08,Rainwise IP-100,2013-09-04 01:36:00,
2013-09-03 21:41:00,63.0,60.0,29.82,NW,315,0.0,0.0,92,0.00,,,0.08,Rainwise IP-100,2013-09-04 01:41:00,
2013-09-03 21:46:00,63.0,61.0,29.82,NW,315,0.0,1.0,94,0.00,,,0.08,Rainwise IP-100,2013-09-04 01:46:00,
2013-09-03 21:51:00,63.0,61.0,29.82,NW,315,0.0,1.0,93,0.00,,,0.08,Rainwise IP-100,2013-09-04 01:51:00,
2013-09-03 21:56:00,63.0,60.0,29.83,NW,315,0.0,1.0,92,0.00,,,0.08,Rainwise IP-100,2013-09-04 01:56:00,
2013-09-03 22:01:00,63.0,61.0,29.83,West,270,2.0,2.0,93,0.00,,,0.08,Rainwise IP-100,2013-09-04 02:01:00,
2013-09-03 22:06:00,63.0,60.0,29.84,SW,225,0.0,2.0,92,0.00,,,0.08,Rainwise IP-100,2013-09-04 02:06:00,
2013-09-03 22:11:00,63.0,60.0,29.84,NW,315,0.0,3.0,92,0.00,,,0.08,Rainwise IP-100,2013-09-04 02:11:00,
2013-09-03 22:16:00,63.0,60.0,29.84,NW,315,0.0,2.0,89,0.00,,,0.08,Rainwise IP-100,2013-09-04 02:16:00,
2013-09-03 22:21:00,64.0,61.0,29.84,West,270,0.0,4.0,90,0.00,,,0.08,Rainwise IP-100,2013-09-04 02:21:00,
2013-09-03 22:26:00,64.0,61.0,29.83,SW,225,0.0,1.0,90,0.00,,,0.08,Rainwise IP-100,2013-09-04 02:26:00,
2013-09-03 22:31:00,64.0,61.0,29.83,SW,225,0.0,1.0,91,0.00,,,0.08,Rainwise IP-100,2013-09-04 02:31:00,
2013-09-03 22:36:00,63.0,60.0,29.84,SW,225,2.0,2.0,91,0.00,,,0.08,Rainwise IP-100,2013-09-04 02:36:00,
2013-09-03 22:41:00,63.0,60.0,29.84,SW,225,1.0,2.0,92,0.00,,,0.08,Rainwise IP-100,2013-09-04 02:41:00,
2013-09-03 22:46:00,63.0,60.0,29.85,WNW,292,0.0,4.0,91,0.00,,,0.08,Rainwise IP-100,2013-09-04 02:46:00,
2013-09-03 22:51:00,63.0,60.0,29.85,West,270,1.0,3.0,92,0.00,,,0.08,Rainwise IP-100,2013-09-04 02:51:00,
2013-09-03 22:56:00,63.0,60.0,29.85,SSE,157,0.0,5.0,92,0.00,,,0.08,Rainwise IP-100,2013-09-04 02:56:00,
2013-09-03 23:01:00,63.0,60.0,29.85,SSE,157,1.0,3.0,92,0.00,,,0.08,Rainwise IP-100,2013-09-04 03:01:00,
2013-09-03 23:06:00,63.0,61.0,29.85,SSE,157,3.0,3.0,94,0.00,,,0.08,Rainwise IP-100,2013-09-04 03:06:00,
2013-09-03 23:11:00,63.0,61.0,29.85,SSE,157,1.0,4.0,95,0.00,,,0.08,Rainwise IP-100,2013-09-04 03:11:00,
2013-09-03 23:16:00,62.0,60.0,29.85,SSE,157,2.0,2.0,95,0.00,,,0.08,Rainwise IP-100,2013-09-04 03:16:00,
2013-09-03 23:21:00,62.0,60.0,29.85,SSE,157,1.0,3.0,95,0.00,,,0.08,Rainwise IP-100,2013-09-04 03:21:00,
2013-09-03 23:26:00,62.0,60.0,29.85,SSE,157,1.0,3.0,95,0.00,,,0.08,Rainwise IP-100,2013-09-04 03:26:00,
2013-09-03 23:31:00,62.0,61.0,29.85,SSE,157,1.0,3.0,97,0.00,,,0.08,Rainwise IP-100,2013-09-04 03:31:00,
2013-09-03 23:36:00,62.0,61.0,29.85,SE,135,2.0,3.0,97,0.00,,,0.08,Rainwise IP-100,2013-09-04 03:36:00,
2013-09-03 23:41:00,62.0,61.0,29.85,ESE,112,1.0,3.0,96,0.00,,,0.08,Rainwise IP-100,2013-09-04 03:41:00,
2013-09-03 23:46:00,61.0,59.0,29.85,ESE,112,0.0,2.0,95,0.00,,,0.08,Rainwise IP-100,2013-09-04 03:46:00,
2013-09-03 23:51:00,62.0,60.0,29.85,NE,45,1.0,3.0,95,0.00,,,0.08,Rainwise IP-100,2013-09-04 03:51:00,
2013-09-03 23:56:00,61.0,59.0,29.85,East,90,1.0,3.0,95,0.00,,,0.08,Rainwise IP-100,2013-09-04 03:56:00,